Location: Neuvy Saint Sepulchre
(46.5953°N, 1.8122°E)
Time: 10:55:39
(UTC+02:00)

ISS - Pass Details

Date: 30 March 2024
Orbit: 413 x 419 km, 51.6° (Epoch: 13 April)

Event Time Altitude Azimuth Distance (km) Brightness Sun altitude
Rises 19:49:44 0° 295° (WNW) 2,362 2.1 -5.9°
Reaches altitude 10° 19:51:51 10° 292° (WNW) 1,498 0.8 -6.3°
Maximum altitude 19:55:09 59° 212° (SSW) 487 -3.3 -6.8°
Drops below altitude 10° 19:58:28 10° 132° (SE) 1,496 -1.5 -7.4°
Enters shadow 19:58:55 - 131° (SE) 1,679 -1.3 -7.5°
